Weather in Igdir

Turkey     39°55′20″N   44°02′41″E
temp.,
°C
wind,
m/s
gust,
m/s
humid.,
%
clouds,
%
prec.,
mm/h
press.,
hPa
HPBL,
m
25 february, thu
thu2500:00+3nw4647100 0.0 1034172
03:00+1nw3452100 0.0 1034111
06:00−1nw455275 0.0 1035102
09:00+2nw454057 0.0 1035450
12:00+5nw33320 0.0 10331093
15:00+7nw33290 0.0 10311615
18:00+5wnw46370 0.0 1033223
21:00+2w46460 0.0 1035210
26 february, fri
fri2600:00+1wnw35490 0.0 1035153
03:00−1nw36490 0.0 1034149
06:00−2nw35510 0.0 1034121
09:00+2nw45380 0.0 1032535
12:00+5nw33290 0.0 10291114
15:00+7nnw22250 0.0 10261364
18:00+6n11332 0.0 102825
21:00+3nw23439 0.0 102950
27 february, sat
sat2700:00+1nw235115 0.0 102864
03:000wnw235133 0.0 102756
06:00−1wnw33510 0.0 102754
09:00+3nw33390 0.0 1026397
12:00+6nne21330 0.0 1022932
15:00+8ene21290 0.0 10201097
18:00+7ese11340 0.0 102122
21:00+4wnw23450 0.0 102257
28 february, sun
sun2800:00+2wnw23490 0.0 102265
03:00+1wnw36480 0.0 1022118
06:00−1wnw35480 0.0 1022100
09:00+3nw44340 0.0 1021364
12:00+7nnw21270 0.0 1018873
15:00+9ne22240 0.0 10161342
18:00+7e11310 0.0 101822
21:00+5wnw36440 0.0 1020157
1 march, mon
mon100:00+3wnw36460 0.0 1021159
03:00+2wnw234833 0.0 102171
06:00+2wnw3646100 0.0 1022119
09:00+5nw3437100 0.0 1022420
12:00+7nw3235100 0.0 10201076
15:00+8wnw5339100 0.0 10191332
18:00+5w7864100 0.1 1020449
21:00+4wnw5768100 0.3 1022507